User: anonymous   Login
Location: Melbourne
(37.8170°S, 144.9670°E)
Time: 13:05:56
(UTC+10:00)
Language:

ADEOS Rocket - Orbit

View from above orbital plane
View from above orbital plane
View from above satellite
View from above satellite

Ground track
Ground track

The orbit data is extracted from the following two-line orbital elements,

1 24279U 96046C   15211.14485516  .00000006  00000-0  54870-4 0  9997
2 24279 098.6963 231.9722 0299153 244.2353 155.8441 13.47029761931613
Epoch (UTC): 30 July 2015 03:28:35
Eccentricity: 0.0299153
inclination: 98.6963°
perigee height: 860 km
apogee height: 1306 km
right ascension of ascending node: 231.9722°
argument of perigee: 244.2353°
revolutions per day: 13.47029761
mean anomaly at epoch: 155.8441°
orbit number at epoch: 93161

The dashed part of the orbit path shows where the satellite is in the earth's shadow,  

DLR